STARLINK-11235, 60726

Orbit data source: Space-Track

STARLINK-11235, 60726 is a payload satellite owned by SpaceX/Seattle (US) in LEO that was launched on Wed, 28 Aug 2024 UTC via an FALCON 9 launch vehicle from the Air Force Eastern Test Range (AFETR). Payload-class satellites include a variety of spacecraft equipped with specific instruments for various scientific and technological missions. These include communications satellites like Starlink; space stations such as the ISS; scientific satellites like the Hubble; Earth observation satellites from companies like Planet Labs, Umbra, and HawkEye 360; GPS; miniature CubeSats for education and research; and military/defense satellites.

Loading next visibility...
Identifier
60726, 2024-152G
Orbit
LEO
Last TLE update
18 hours ago
Origin
Manufacturer
SpaceX/Seattle
Mission
Operational Commercial Communications
Bus & Motor
STARLINK V2M, Unknown motor
Mass
730 kg wet, ~700 kg dry
Launch date (UTC)
2024-08-28 (10 months ago)
Launch vehicle
FALCON 9
Launch site
Air Force Eastern Test Range (AFETR)
Object type
Payload
Rocket body
Debris
Shape & HBR
Box + 2 Pan, 29 m
Radar Cross Section
36.964 m², Large (>1 m²)

Expand to show TLE details & history

TLE from 18 hours ago
0 STARLINK-11235
1 60726U 24152G   25181.67538047 -.00005164  00000-0 -37762-4 0  9999
2 60726  53.1594 278.5764 0000497  74.0724 286.0349 15.69735762 49380
Epoch: 2025-06-30T16:12Z
TLE epoch observation values (Epoch: 2025-06-30T16:12:32.872Z)
Latitude
-0°
Longitude
116.45765°
Altitude
360.476 km
Speed
7.694 km/s
True Right ascension
18h 34m 18s
True Declination
0° 00' 00"
Sunlit
Object was in full shadow at epoch
Visualization orbit readout
Latitude
-37.30178°
Longitude
-32.61405°
Altitude
372.025 km
Speed
7.686 km/s
Apparent Right ascension
09h 06m 27s
Apparent Declination
-38° 37' 35"
Sunlit
Object is in daylight
Visualization observer readout
Local Sidereal Time
21:37:41
Azimuth
80.448° E
Elevation
-83.822°
Doppler factor
1
Orbital elements
Apogee altitude
360.249 km
Perigee altitude
359.579 km
Semi-major axis
6,738.051 km
Eccentricity
0.00005
Inclination
53.1594°
RAAN
278.5764°
Arg. of periapsis
74.0724°
True anomaly
Unknown
Mean anomaly
286.0349°
Eccentric anomaly
Unknown
Mean motion
3.92412 °/min
Orbital period
91.74 mins
BSTAR
-0.000037762
Loading maneuver chart data...
Loading SW <> Apogee altitude chart data...
Loading historical data...
Loading historical data...
Loading historical data...
Loading historical data...
Loading historical data...
Loading historical data...
Loading historical data...

STARLINK-11235 Visibility forecast

Observer location: undefined°, undefined°

Span
Click to sort rows by Start time (UTC) header in descending order
Start Az.
Max El. time (UTC)
Max El. Az.
Max El.
End time (UTC)
End Az.
4 mins2025-07-01 15:37:19.203Z325.7° NNW2025-07-01 15:39:19.203Z46.25° ENE37.353°2025-07-01 15:41:19.203Z109.805° ESE
|